Hourly Weather Agde

Today, 7 March, Sunday

Time Temperature Precipitation Wind Pressure Humidity
00:00 +12°C° 0 mm 2 mps 768 mmHg 81%
01:00 +11°C° 0.9 mm 3 mps 767 mmHg 84%
02:00 +11°C° 0.9 mm 4 mps 767 mmHg 87%
03:00 +10°C° 0.9 mm 5 mps 767 mmHg 90%
04:00 +10°C° 0.5 mm 5 mps 766 mmHg 89%
05:00 +10°C° 0.5 mm 5 mps 766 mmHg 88%
06:00 +10°C° 0 mm 5 mps 766 mmHg 87%
07:00 +10°C° 0.3 mm 5 mps 766 mmHg 86%
08:00 +10°C° 0.3 mm 5 mps 766 mmHg 85%
09:00 +10°C° 0.3 mm 5 mps 766 mmHg 84%
10:00 +12°C° 0.2 mm 5 mps 766 mmHg 83%
11:00 +12°C° 0.2 mm 5 mps 765 mmHg 82%
12:00 +12°C° 0 mm 5 mps 765 mmHg 81%
13:00 +12°C° 0.3 mm 5 mps 765 mmHg 82%
14:00 +12°C° 0.3 mm 5 mps 764 mmHg 83%
15:00 +12°C° 0.3 mm 4 mps 764 mmHg 84%
16:00 +12°C° 0.2 mm 4 mps 763 mmHg 85%
17:00 +12°C° 0.2 mm 3 mps 763 mmHg 86%
18:00 +11°C° 0.2 mm 3 mps 763 mmHg 87%
19:00 +12°C° 0.2 mm 2 mps 763 mmHg 88%
20:00 +12°C° 0.2 mm 2 mps 763 mmHg 88%
21:00 +12°C° 0.2 mm 2 mps 763 mmHg 88%
22:00 +10°C° 0.1 mm 2 mps 763 mmHg 88%
23:00 +10°C° 0.1 mm 2 mps 763 mmHg 88%

Tomorrow, 8 March, Monday

Time Temperature Precipitation Wind Pressure Humidity
00:00 +9°C° 0.1 mm 2 mps 763 mmHg 87%
01:00 +9°C° 0.1 mm 2 mps 762 mmHg 87%
02:00 +9°C° 0.1 mm 3 mps 762 mmHg 86%
03:00 +9°C° 0.1 mm 3 mps 762 mmHg 85%
04:00 +9°C° 0.1 mm 3 mps 762 mmHg 85%
05:00 +8°C° 0.1 mm 2 mps 762 mmHg 84%
06:00 +8°C° 0.1 mm 2 mps 762 mmHg 83%
07:00 +10°C° 0 mm 2 mps 762 mmHg 79%
08:00 +12°C° 0 mm 2 mps 762 mmHg 74%
09:00 +13°C° 0 mm 2 mps 762 mmHg 70%
10:00 +14°C° 0 mm 2 mps 762 mmHg 66%
11:00 +15°C° 0 mm 2 mps 762 mmHg 63%
12:00 +16°C° 0 mm 2 mps 762 mmHg 59%
13:00 +16°C° 0 mm 2 mps 761 mmHg 58%
14:00 +16°C° 0 mm 2 mps 761 mmHg 58%
15:00 +16°C° 0 mm 3 mps 761 mmHg 57%
16:00 +14°C° 0.1 mm 3 mps 761 mmHg 62%
17:00 +13°C° 0.1 mm 4 mps 761 mmHg 67%
18:00 +12°C° 0.1 mm 4 mps 761 mmHg 72%
19:00 +12°C° 0 mm 4 mps 761 mmHg 72%
20:00 +11°C° 0 mm 4 mps 762 mmHg 72%
21:00 +10°C° 0 mm 5 mps 762 mmHg 73%
22:00 +10°C° 0 mm 5 mps 762 mmHg 75%
23:00 +10°C° 0 mm 4 mps 762 mmHg 76%

Day after tomorrow, 9 March, Tuesday

Time Temperature Precipitation Wind Pressure Humidity
00:00 +10°C° 0 mm 4 mps 763 mmHg 78%
01:00 +8°C° 0 mm 5 mps 763 mmHg 79%
02:00 +8°C° 0 mm 5 mps 762 mmHg 79%
03:00 +7°C° 0 mm 5 mps 762 mmHg 79%
04:00 +7°C° 0 mm 5 mps 762 mmHg 79%
05:00 +7°C° 0 mm 5 mps 763 mmHg 79%
06:00 +7°C° 0 mm 6 mps 763 mmHg 79%
07:00 +8°C° 0 mm 6 mps 763 mmHg 73%
08:00 +9°C° 0 mm 6 mps 763 mmHg 67%
09:00 +10°C° 0 mm 6 mps 763 mmHg 61%
10:00 +11°C° 0 mm 6 mps 763 mmHg 56%
11:00 +13°C° 0 mm 6 mps 763 mmHg 50%
12:00 +14°C° 0 mm 5 mps 763 mmHg 45%
13:00 +14°C° 0 mm 6 mps 762 mmHg 45%
14:00 +14°C° 0 mm 7 mps 762 mmHg 45%
15:00 +14°C° 0 mm 7 mps 762 mmHg 44%
16:00 +12°C° 0 mm 7 mps 762 mmHg 49%
17:00 +11°C° 0 mm 7 mps 762 mmHg 53%
18:00 +10°C° 0 mm 7 mps 763 mmHg 58%
19:00 +9°C° 0 mm 7 mps 763 mmHg 58%
20:00 +9°C° 0 mm 7 mps 764 mmHg 58%
21:00 +8°C° 0 mm 7 mps 765 mmHg 58%
22:00 +8°C° 0 mm 7 mps 765 mmHg 59%
23:00 +6°C° 0 mm 7 mps 765 mmHg 60%

10 March, Wednesday

Time Temperature Precipitation Wind Pressure Humidity
00:00 +5°C° 0 mm 6 mps 765 mmHg 61%
01:00 +5°C° 0 mm 6 mps 765 mmHg 62%
02:00 +5°C° 0 mm 6 mps 765 mmHg 63%
03:00 +4°C° 0 mm 6 mps 765 mmHg 64%
04:00 +5°C° 0 mm 5 mps 766 mmHg 65%
05:00 +5°C° 0 mm 5 mps 766 mmHg 66%
06:00 +4°C° 0 mm 4 mps 766 mmHg 66%
07:00 +6°C° 0 mm 4 mps 766 mmHg 61%
08:00 +7°C° 0 mm 4 mps 766 mmHg 56%
09:00 +10°C° 0 mm 3 mps 767 mmHg 51%
10:00 +12°C° 0 mm 3 mps 767 mmHg 47%
11:00 +14°C° 0 mm 2 mps 766 mmHg 43%
12:00 +16°C° 0 mm 2 mps 766 mmHg 38%
13:00 +16°C° 0 mm 2 mps 766 mmHg 38%
14:00 +17°C° 0 mm 2 mps 766 mmHg 37%
15:00 +17°C° 0 mm 3 mps 765 mmHg 37%
16:00 +16°C° 0 mm 3 mps 765 mmHg 41%
17:00 +13°C° 0 mm 4 mps 766 mmHg 46%
18:00 +12°C° 0 mm 5 mps 766 mmHg 51%
19:00 +11°C° 0 mm 4 mps 767 mmHg 53%
20:00 +10°C° 0 mm 4 mps 767 mmHg 54%
21:00 +8°C° 0 mm 4 mps 768 mmHg 56%
22:00 +8°C° 0 mm 4 mps 768 mmHg 56%
23:00 +9°C° 0 mm 3 mps 768 mmHg 55%

11 March, Thursday

Time Temperature Precipitation Wind Pressure Humidity
00:00 +9°C° 0 mm 3 mps 768 mmHg 54%
01:00 +9°C° 0 mm 3 mps 767 mmHg 55%
02:00 +9°C° 0 mm 2 mps 767 mmHg 55%
03:00 +8°C° 0 mm 2 mps 767 mmHg 55%
04:00 +8°C° 0 mm 2 mps 767 mmHg 55%
05:00 +8°C° 0 mm 2 mps 767 mmHg 55%
06:00 +8°C° 0 mm 2 mps 767 mmHg 56%
07:00 +11°C° 0 mm 1 mps 767 mmHg 53%
08:00 +12°C° 0 mm 1 mps 767 mmHg 50%
09:00 +13°C° 0 mm 1 mps 767 mmHg 47%
10:00 +14°C° 0 mm 1 mps 767 mmHg 46%
11:00 +16°C° 0 mm 1 mps 767 mmHg 44%
12:00 +18°C° 0 mm 1 mps 766 mmHg 43%
13:00 +16°C° 0 mm 1 mps 766 mmHg 45%
14:00 +16°C° 0 mm 2 mps 766 mmHg 46%
15:00 +16°C° 0 mm 2 mps 765 mmHg 48%
16:00 +15°C° 0 mm 2 mps 765 mmHg 52%
17:00 +14°C° 0 mm 1 mps 765 mmHg 56%
18:00 +12°C° 0 mm 0 mps 765 mmHg 60%
19:00 +13°C° 0 mm 1 mps 766 mmHg 61%
20:00 +13°C° 0 mm 1 mps 766 mmHg 62%
21:00 +13°C° 0 mm 1 mps 766 mmHg 63%
22:00 +13°C° 0 mm 1 mps 766 mmHg 66%
23:00 +12°C° 0 mm 1 mps 766 mmHg 68%

12 March, Friday

Time Temperature Precipitation Wind Pressure Humidity
00:00 +12°C° 0 mm 1 mps 766 mmHg 71%
01:00 +12°C° 0 mm 2 mps 766 mmHg 73%
02:00 +11°C° 0 mm 3 mps 766 mmHg 75%
03:00 +11°C° 0 mm 3 mps 766 mmHg 77%
04:00 +11°C° 0 mm 4 mps 766 mmHg 77%
05:00 +11°C° 0 mm 4 mps 766 mmHg 77%
06:00 +11°C° 0 mm 4 mps 766 mmHg 76%
07:00 +12°C° 0 mm 4 mps 766 mmHg 71%
08:00 +13°C° 0 mm 4 mps 766 mmHg 66%
09:00 +14°C° 0 mm 4 mps 766 mmHg 61%
10:00 +14°C° 0 mm 4 mps 766 mmHg 58%
11:00 +15°C° 0 mm 4 mps 766 mmHg 54%
12:00 +17°C° 0 mm 4 mps 765 mmHg 51%
13:00 +17°C° 0 mm 4 mps 765 mmHg 51%
14:00 +17°C° 0 mm 4 mps 764 mmHg 50%
15:00 +17°C° 0 mm 4 mps 764 mmHg 50%
16:00 +15°C° 0 mm 4 mps 764 mmHg 54%
17:00 +14°C° 0 mm 4 mps 764 mmHg 59%
18:00 +13°C° 0 mm 4 mps 764 mmHg 63%
19:00 +12°C° 0 mm 4 mps 764 mmHg 65%
20:00 +12°C° 0 mm 4 mps 764 mmHg 68%
21:00 +12°C° 0 mm 4 mps 764 mmHg 70%
22:00 +11°C° 0 mm 4 mps 764 mmHg 71%
23:00 +11°C° 0 mm 4 mps 764 mmHg 73%
Show more